TimeEDT,TemperatureF,Dew PointF,Humidity,Sea Level PressureIn,VisibilityMPH,Wind Direction,Wind SpeedMPH,Gust SpeedMPH,PrecipitationIn,Events,Conditions,WindDirDegrees,DateUTC
12:53 AM,75.9,70.0,82,30.05,10.0,East,3.5,-,N/A,,Clear,100,2013-10-05 04:53:00
1:53 AM,75.0,70.0,84,30.04,10.0,East,3.5,-,N/A,,Scattered Clouds,100,2013-10-05 05:53:00
2:53 AM,75.0,70.0,84,30.03,10.0,Calm,Calm,-,N/A,,Clear,0,2013-10-05 06:53:00
3:53 AM,73.9,70.0,87,30.01,10.0,ENE,3.5,-,N/A,,Clear,60,2013-10-05 07:53:00
4:53 AM,73.0,70.0,90,30.00,10.0,ENE,3.5,-,N/A,,Clear,60,2013-10-05 08:53:00
5:53 AM,73.0,71.1,93,30.00,10.0,ENE,5.8,-,N/A,,Clear,70,2013-10-05 09:53:00
6:53 AM,73.0,70.0,90,30.01,10.0,ENE,4.6,-,N/A,,Clear,70,2013-10-05 10:53:00
7:53 AM,73.0,70.0,90,30.01,10.0,ENE,5.8,-,N/A,,Clear,60,2013-10-05 11:53:00
8:53 AM,77.0,70.0,79,30.03,10.0,East,5.8,-,N/A,,Clear,80,2013-10-05 12:53:00
9:53 AM,78.1,70.0,76,30.04,10.0,East,6.9,-,N/A,,Clear,80,2013-10-05 13:53:00
10:53 AM,80.1,71.1,74,30.05,10.0,ENE,4.6,-,N/A,,Clear,60,2013-10-05 14:53:00
11:53 AM,82.0,69.1,65,30.04,10.0,East,5.8,-,N/A,,Clear,90,2013-10-05 15:53:00
12:53 PM,84.0,68.0,58,30.02,10.0,NE,8.1,-,N/A,,Partly Cloudy,50,2013-10-05 16:53:00
1:53 PM,86.0,64.9,49,30.00,10.0,East,5.8,-,N/A,,Clear,90,2013-10-05 17:53:00
2:53 PM,87.1,63.0,44,29.96,10.0,ESE,4.6,-,N/A,,Clear,110,2013-10-05 18:53:00
3:53 PM,88.0,64.9,46,29.95,10.0,Variable,5.8,-,N/A,,Clear,0,2013-10-05 19:53:00
4:53 PM,87.1,64.0,46,29.94,10.0,ESE,5.8,-,N/A,,Clear,120,2013-10-05 20:53:00
5:53 PM,87.1,66.0,49,29.93,10.0,East,5.8,-,N/A,,Partly Cloudy,100,2013-10-05 21:53:00
6:53 PM,84.9,66.9,55,29.94,10.0,ENE,4.6,-,N/A,,Overcast,70,2013-10-05 22:53:00
7:53 PM,82.0,70.0,67,29.95,10.0,East,4.6,-,N/A,,Mostly Cloudy,80,2013-10-05 23:53:00
8:53 PM,80.1,71.1,74,29.97,10.0,East,5.8,-,N/A,,Clear,100,2013-10-06 00:53:00
9:53 PM,80.1,71.1,74,29.98,10.0,East,5.8,-,N/A,,Clear,90,2013-10-06 01:53:00
10:53 PM,78.1,71.1,79,29.99,10.0,East,4.6,-,N/A,,Clear,90,2013-10-06 02:53:00
11:53 PM,77.0,71.1,82,29.99,10.0,Calm,Calm,-,N/A,,Clear,0,2013-10-06 03:53:00